Showing default

SHIYAN 23 (SY-23), 59728

Orbit data source: Space-Track

SHIYAN 23 (SY-23), 59728 is a payload satellite owned by CNSA (CN) in SSO that was launched on Sat, 11 May 2024 UTC via a CHANG ZHENG 4C launch vehicle from the Jiuquan Satellite Launch Center, China (JSC). Payload-class satellites include a variety of spacecraft equipped with specific instruments for various scientific and technological missions. These include communications satellites like Starlink; space stations such as the ISS; scientific satellites like the Hubble; Earth observation satellites from companies like Planet Labs, Umbra, and HawkEye 360; GPS; miniature CubeSats for education and research; and military/defense satellites.

Loading next visibility...
Identifier
59728, 2024-089A
Orbit
SSO
Country
Flag of CNCN / PRC
Related business
Manufacturer
CAST
Mission
Operational Defense Technology
Bus & Motor
SY23, Unknown motor
Mass
~1,000 kg wet, ~1,000 kg dry
Launch date (UTC)
2024-05-11 (2 years ago)
Launch vehicle
CHANG ZHENG 4C
Launch site
Jiuquan Satellite Launch Center, China (JSC)
Object type
Payload
Rocket body
Debris
Shape & HBR
Box + 2 Pan, 2.5 m
Radar Cross Section
4.795 m², Large (>1 m²)

Expand to show TLE details & history
Last TLE update: 3 hours ago

TLE from 3 hours ago
0 SHIYAN 23 (SY-23)
1 59728U 24089A   26236.76570487  .00000450  00000-0  56053-4 0  9999
2 59728  97.7810 237.1537 0003466 354.1025   6.0150 14.87118241124031
Epoch: 2026-08-24T18:22Z
TLE epoch observation values (Epoch: 2026-08-24T18:22:36.900Z)
Latitude
-0.00002°
Longitude
-11.54275°
Altitude
607.571 km
Speed
7.557 km/s
True Right ascension
15h 48m 36s
True Declination
0° 00' 00"
Sunlit
Object was in daylight at epoch
Visualization orbit readout
Latitude
Unknown
Longitude
Unknown
Altitude
Unknown
Speed
Unknown
Apparent Right ascension
Unknown
Apparent Declination
Unknown
Sunlit
N/A
Visualization observer readout
Local Sidereal Time
13:02:48
Azimuth
Unknown
Elevation
Unknown
Doppler factor
Unknown
Orbital elements
Apogee altitude
606.391 km
Perigee altitude
601.551 km
Semi-major axis
6,982.108 km
Eccentricity
0.00035
Inclination
97.781°
RAAN
237.1537°
Arg. of periapsis
354.1025°
True anomaly
6.01916°
Mean anomaly
6.015°
Eccentric anomaly
6.01708°
Mean motion
3.72017 °/min
Orbital period
96.77 mins
BSTAR
0.000056053
Loading maneuver chart data...
Computing Atmospheric mass density...
Loading historical data...
Loading historical data...
Loading historical data...
Loading historical data...
Loading historical data...
Loading historical data...
Loading historical data...
Other satellites on launch #89 in the year 2024 (2024-05-11 UTC)

Documentation

Showing up to 5 results
|